Regional Weather Roundup
Issued by NWS

Home | Current Version | Previous Version | Graphics & Text | Print | Product List | Glossary Off
Versions: 1 2 3 4 5 6 7 8 9 10 11 12 13 14 15 16 17 18 19 20 21 22 23 24 25 26 27 28 29 30 31 32 33 34 35 36 37 38 39 40 41 42 43 44 45 46 47 48 49 50

000
ASUS43 KFSD 171710
RWRSD

WEATHER ROUNDUP FOR SOUTH DAKOTA
NATIONAL WEATHER SERVICE SIOUX FALLS SD
1200 PM CDT TUE OCT 17 2017

NOTE: "FAIR" INDICATES FEW OR NO CLOUDS BELOW 12,000 FEET WITH NO
SIGNIFICANT WEATHER AND/OR OBSTRUCTIONS TO VISIBILITY.


SDZ001>005-009-010-012>017-171800-
NORTHWEST AND NORTH CENTRAL SOUTH DAKOTA

CITY           SKY/WX    TMP DP  RH WIND       PRES   REMARKS
BUFFALO          N/A     72  23  16 W18       29.92F
FAITH            N/A     73  25  16 W13       29.98F
MOBRIDGE       SUNNY     63  37  38 S8        29.93F
$$

SDZ012>016-024>037-041>051-057-063-072>074-171800-
SOUTHWEST AND SOUTH CENTRAL SOUTH DAKOTA

CITY           SKY/WX    TMP DP  RH WIND       PRES   REMARKS
RAPID CTY ARPT SUNNY     70  29  21 S5        30.04F
PIERRE         SUNNY     59  36  42 SW7       29.99F
CUSTER         SUNNY     63  23  21 SW7       30.13F
ELLSWORTH AFB  SUNNY     72  28  19 S8        30.03F
PHILIP         SUNNY     67  36  31 SW9       30.01F
PINE RIDGE     SUNNY     67  27  22 W10G16    30.09F
SPEARFISH      FAIR      70  25  18 W3        30.05F
WINNER         FAIR      71  40  32 SW8       30.04F
$$

SDZ004>011-016>023-039-040-171800-
NORTHEAST SOUTH DAKOTA

CITY           SKY/WX    TMP DP  RH WIND       PRES   REMARKS
ABERDEEN       SUNNY     60  43  53 S8        29.97F
WATERTOWN      SUNNY     63  44  50 S7        30.00S
BROOKINGS      SUNNY     65  46  50 S3        30.02F
SISSETON         N/A     71  39  31 SW12      29.94F
$$

SDZ017-020-022-023-036>040-048>070-171800-
SOUTHEAST SOUTH DAKOTA

CITY           SKY/WX    TMP DP  RH WIND       PRES   REMARKS
SIOUX FALLS    SUNNY     67  48  50 VRB3      30.04F
HURON          SUNNY     65  43  44 MISG      30.00F
CHAMBERLAIN    SUNNY     70  42  36 SW3       30.03F
MITCHELL       SUNNY     68  44  42 S6        30.03F
YANKTON        SUNNY     66  46  48 S6        30.05F
$$

ABBREVIATIONS USED IN REMARKS
   TC - TEMPERATURE IN CELSIUS
  WCI - WIND CHILL INDEX
   HX - HEAT INDEX
  VSB - VISIBILITY





USA.gov is the U.S. government's official web portal to all federal, state and local government web resources and services.